KLM744 SPJC-EHAM

Flight info

Callsign KLM744
Flight time N/A
Altitude 27000
Route ILROL UL342 ENPUT/N0516F290 UL342 KARUM DCT KATOK DCT JANMA DCT HANCY/M085F290 DCT NUBUS DCT DUPAN DCT KOZIK DCT NUMBR/M085F310 DCT 35N060W 44N050W 48N040W 51N030W 53N020W DCT MALOT/N0490F310 DCT GISTI/N0484F330 DCT DUB DCT LIFFY DCT DOLAS L603 LAMSO
Aircraft B77W/H-SDE1E2E3FGHIJ2J3J4J5M1RWXY/LB1D1

Departure

Time 2026-05-07 08:43
Airport Jorge Chávez International Airport (SPJC)

Arrival

Time N/A
Airport Amsterdam Airport Schiphol (EHAM)
Time Latitude Longitude Altitude Speed Heading
2026-05-07 08:32 -12.02625 -77.10845 99 ft 0 kts 66°
2026-05-07 08:35 -12.02632 -77.10859 104 ft 2 kts 63°
2026-05-07 08:35 -12.02640 -77.10874 98 ft 2 kts 58°
2026-05-07 08:35 -12.02649 -77.10887 98 ft 2 kts 41°
2026-05-07 08:36 -12.02664 -77.10893 98 ft 2 kts 341°
2026-05-07 08:36 -12.02670 -77.10891 98 ft 0 kts 335°
2026-05-07 08:37 -12.02664 -77.10894 98 ft 3 kts 334°
2026-05-07 08:37 -12.02629 -77.10911 102 ft 10 kts 334°
2026-05-07 08:37 -12.02567 -77.10942 102 ft 12 kts 334°
2026-05-07 08:38 -12.02502 -77.10993 100 ft 13 kts 297°
2026-05-07 08:38 -12.02462 -77.11072 97 ft 13 kts 301°
2026-05-07 08:38 -12.02354 -77.11139 98 ft 20 kts 335°
2026-05-07 08:38 -12.02227 -77.11201 95 ft 20 kts 334°
2026-05-07 08:39 -12.02100 -77.11264 91 ft 20 kts 334°
2026-05-07 08:39 -12.01973 -77.11326 89 ft 20 kts 334°
2026-05-07 08:39 -12.01847 -77.11388 87 ft 20 kts 334°
2026-05-07 08:39 -12.01721 -77.11451 85 ft 20 kts 333°
2026-05-07 08:40 -12.01593 -77.11513 74 ft 20 kts 334°
2026-05-07 08:40 -12.01466 -77.11575 64 ft 20 kts 334°
2026-05-07 08:40 -12.01339 -77.11638 62 ft 20 kts 334°
2026-05-07 08:40 -12.01212 -77.11701 60 ft 20 kts 334°
2026-05-07 08:41 -12.01085 -77.11764 63 ft 20 kts 335°
2026-05-07 08:41 -12.00958 -77.11826 56 ft 20 kts 335°
2026-05-07 08:41 -12.00831 -77.11887 55 ft 20 kts 333°
2026-05-07 08:41 -12.00716 -77.11949 55 ft 15 kts 320°
2026-05-07 08:42 -12.00687 -77.12046 52 ft 15 kts 252°
2026-05-07 08:42 -12.00767 -77.12112 52 ft 15 kts 188°
2026-05-07 08:42 -12.00881 -77.12071 51 ft 25 kts 155°
2026-05-07 08:42 -12.01184 -77.11923 62 ft 80 kts 154°
2026-05-07 08:43 -12.01881 -77.11582 84 ft 141 kts 154°
2026-05-07 08:43 -12.02922 -77.11068 150 ft 184 kts 154°
2026-05-07 08:43 -12.04107 -77.10485 488 ft 195 kts 155°
2026-05-07 08:43 -12.05344 -77.09879 847 ft 205 kts 155°
2026-05-07 08:44 -12.06662 -77.09231 1252 ft 216 kts 155°
2026-05-07 08:44 -12.08032 -77.08555 1770 ft 220 kts 154°
2026-05-07 08:44 -12.09468 -77.07845 1959 ft 236 kts 154°
2026-05-07 08:44 -12.10980 -77.07098 2266 ft 246 kts 154°
2026-05-07 08:45 -12.12568 -77.06312 2477 ft 260 kts 154°
2026-05-07 08:45 -12.14156 -77.05378 2749 ft 269 kts 135°
2026-05-07 08:45 -12.15110 -77.03737 3096 ft 276 kts 101°
2026-05-07 08:45 -12.15031 -77.01784 3547 ft 280 kts 72°
2026-05-07 08:46 -12.14123 -77.00057 4064 ft 283 kts 49°
2026-05-07 08:46 -12.12586 -76.98796 4567 ft 288 kts 24°
2026-05-07 08:46 -12.10643 -76.98309 5041 ft 291 kts 359°
2026-05-07 08:46 -12.08633 -76.98552 5427 ft 294 kts 349°
2026-05-07 08:47 -12.06612 -76.98962 5900 ft 298 kts 348°
2026-05-07 08:47 -12.04582 -76.99400 6456 ft 298 kts 348°
2026-05-07 08:47 -12.02549 -76.99840 6935 ft 300 kts 348°
2026-05-07 08:47 -12.00492 -77.00277 7386 ft 303 kts 348°
2026-05-07 08:48 -11.98418 -77.00710 7848 ft 306 kts 348°
2026-05-07 08:48 -11.96354 -77.01135 8297 ft 308 kts 349°
2026-05-07 08:48 -11.94248 -77.01563 8776 ft 310 kts 349°
2026-05-07 08:48 -11.92122 -77.01991 9240 ft 312 kts 349°
2026-05-07 08:49 -11.89981 -77.02418 9704 ft 315 kts 349°
2026-05-07 08:49 -11.87825 -77.02848 10108 ft 318 kts 349°
2026-05-07 08:49 -11.85609 -77.03289 10249 ft 332 kts 349°
2026-05-07 08:49 -11.83288 -77.03749 10376 ft 347 kts 349°
2026-05-07 08:50 -11.74698 -77.05447 11136 ft 386 kts 349°
2026-05-07 08:50 -11.53112 -77.09709 14948 ft 409 kts 349°
2026-05-07 08:50 -11.29929 -77.14277 18442 ft 429 kts 349°
2026-05-07 08:50 -11.11211 -77.17960 20675 ft 443 kts 349°
2026-05-07 08:51 -11.08168 -77.18558 20975 ft 447 kts 349°
2026-05-07 08:51 -11.05108 -77.19159 21294 ft 450 kts 349°
2026-05-07 08:51 -10.99218 -77.20317 21951 ft 454 kts 349°
2026-05-07 08:51 -10.73988 -77.25272 24483 ft 468 kts 349°
2026-05-07 08:52 -10.48119 -77.29455 26569 ft 477 kts
2026-05-07 08:52 -10.22436 -77.22358 28612 ft 482 kts 13°
2026-05-07 08:52 -9.95898 -77.15996 29420 ft 498 kts 13°
2026-05-07 08:52 -9.68910 -77.09299 29386 ft 511 kts 13°
2026-05-07 08:53 -9.41455 -77.02539 29190 ft 503 kts 13°
2026-05-07 08:53 -9.14621 -76.95938 29114 ft 492 kts 13°
2026-05-07 08:53 -8.87823 -76.89351 29258 ft 500 kts 13°
2026-05-07 08:53 -8.60412 -76.82629 29265 ft 512 kts 14°
2026-05-07 08:54 -8.32806 -76.75865 29054 ft 507 kts 14°
2026-05-07 08:54 -8.05679 -76.69222 28938 ft 495 kts 14°
2026-05-07 08:54 -7.78867 -76.62663 29049 ft 498 kts 14°
2026-05-07 08:54 -7.51994 -76.56098 29146 ft 510 kts 14°
2026-05-07 08:55 -7.24247 -76.49331 28994 ft 512 kts 14°
2026-05-07 08:55 -6.96808 -76.42648 28885 ft 501 kts 14°
2026-05-07 08:55 -6.42811 -76.29464 29088 ft 507 kts 14°
2026-05-07 08:56 -5.87574 -76.15933 28902 ft 505 kts 14°
2026-05-07 08:56 -5.33653 -76.02748 29032 ft 501 kts 14°
2026-05-07 08:57 -5.06258 -75.96061 29069 ft 512 kts 14°
2026-05-07 08:57 -4.78935 -75.89398 28940 ft 508 kts 14°
2026-05-07 08:57 -4.51792 -75.82782 28863 ft 496 kts 14°
2026-05-07 08:57 -4.25009 -75.76260 28974 ft 497 kts 14°
2026-05-07 08:58 -3.97836 -75.69647 29083 ft 509 kts 14°
2026-05-07 08:58 -3.70079 -75.62899 28986 ft 513 kts 14°
2026-05-07 08:58 -3.42571 -75.56213 28878 ft 502 kts 14°
2026-05-07 08:58 -3.15690 -75.49700 28904 ft 495 kts 14°
2026-05-07 08:59 -2.88675 -75.43152 29050 ft 503 kts 14°
2026-05-07 08:59 -2.61504 -75.36575 29061 ft 513 kts 14°
2026-05-07 08:59 -2.33817 -75.29875 28926 ft 508 kts 15°
2026-05-07 08:59 -2.06709 -75.23309 28880 ft 496 kts 15°
2026-05-07 09:00 -1.79870 -75.16804 28993 ft 498 kts 15°
2026-05-07 09:00 -1.52617 -75.10204 29101 ft 510 kts 15°
2026-05-07 09:00 -1.24926 -75.03502 28993 ft 511 kts 15°
2026-05-07 09:00 -0.97530 -74.96874 28891 ft 500 kts 15°
2026-05-07 09:01 -0.43761 -74.83859 29060 ft 505 kts 16°
2026-05-07 09:01 -0.16360 -74.77226 29090 ft 518 kts 16°
2026-05-07 09:01 0.11301 -74.69502 28945 ft 515 kts 18°
2026-05-07 09:02 0.38657 -74.61936 28882 ft 504 kts 17°
2026-05-07 09:02 0.65722 -74.54447 28996 ft 507 kts 17°
2026-05-07 09:02 0.93278 -74.46811 29105 ft 520 kts 17°
2026-05-07 09:02 1.21310 -74.39046 28984 ft 522 kts 17°
2026-05-07 09:03 1.49023 -74.31364 28886 ft 510 kts 17°
2026-05-07 09:03 1.76096 -74.23862 28921 ft 502 kts 17°
2026-05-07 09:03 2.03211 -74.16343 29069 ft 511 kts 17°
2026-05-07 09:03 2.30878 -74.08667 29055 ft 518 kts 17°
2026-05-07 09:04 2.58101 -74.01110 28924 ft 510 kts 17°
2026-05-07 09:04 2.85149 -73.93597 28917 ft 501 kts 17°
2026-05-07 09:04 3.12146 -73.86094 29065 ft 508 kts 17°
2026-05-07 09:04 3.39747 -73.78419 29101 ft 519 kts 17°
2026-05-07 09:05 3.67540 -73.70689 28971 ft 515 kts 17°
2026-05-07 09:05 3.94874 -73.63077 28933 ft 504 kts 17°
2026-05-07 09:05 4.21846 -73.55563 29055 ft 505 kts 16°
2026-05-07 09:05 4.49154 -73.47752 29185 ft 517 kts 17°
2026-05-07 09:06 4.76614 -73.39579 29076 ft 522 kts 17°
2026-05-07 09:06 5.04222 -73.31445 29007 ft 513 kts 17°
2026-05-07 09:06 5.32156 -73.23183 30134 ft 521 kts 16°
2026-05-07 09:06 5.59859 -73.14994 31196 ft 521 kts 16°
2026-05-07 09:07 6.15191 -72.98595 31017 ft 510 kts 16°
2026-05-07 09:07 6.41997 -72.90649 30957 ft 496 kts 16°
2026-05-07 09:07 6.68334 -72.82816 31087 ft 501 kts 15°
2026-05-07 09:08 6.95482 -72.74740 31226 ft 515 kts 15°
2026-05-07 09:08 7.23095 -72.66524 31158 ft 518 kts 15°
2026-05-07 09:08 7.50582 -72.58336 31015 ft 506 kts 15°
2026-05-07 09:08 7.77217 -72.50376 30920 ft 497 kts 15°
2026-05-07 09:09 8.03763 -72.42442 31035 ft 504 kts 15°
2026-05-07 09:09 8.30729 -72.34072 31043 ft 516 kts 19°
2026-05-07 09:09 8.57832 -72.24152 30913 ft 516 kts 18°
2026-05-07 09:09 8.84587 -72.14705 30799 ft 505 kts 18°
2026-05-07 09:10 9.37223 -71.95954 30971 ft 510 kts 18°
2026-05-07 09:10 9.91323 -71.75873 30864 ft 512 kts 21°
2026-05-07 09:11 10.17255 -71.65479 30792 ft 499 kts 21°
2026-05-07 09:11 10.42783 -71.55158 30897 ft 499 kts 20°
2026-05-07 09:11 10.68959 -71.44727 31011 ft 508 kts 20°
2026-05-07 09:11 10.95371 -71.34113 30943 ft 509 kts 20°
2026-05-07 09:12 11.21499 -71.23559 30830 ft 494 kts 19°
2026-05-07 09:12 11.46522 -71.13457 30820 ft 480 kts 20°
2026-05-07 09:12 11.71168 -71.03472 30947 ft 483 kts 20°
2026-05-07 09:12 11.96390 -70.93251 31017 ft 492 kts 20°
2026-05-07 09:13 12.47727 -70.76924 30913 ft 475 kts 12°
2026-05-07 09:13 12.96576 -70.57299 31041 ft 479 kts 20°
2026-05-07 09:14 13.46485 -70.36711 30918 ft 479 kts 20°
2026-05-07 09:14 13.71014 -70.26555 30864 ft 467 kts 20°
2026-05-07 09:14 13.94797 -70.16734 30974 ft 468 kts 20°
2026-05-07 09:15 14.19716 -70.07721 31085 ft 475 kts 16°
2026-05-07 09:15 14.44705 -69.99037 31055 ft 482 kts 19°
2026-05-07 09:15 14.69419 -69.88812 30936 ft 475 kts 19°
2026-05-07 09:15 14.93861 -69.78896 30894 ft 464 kts 19°
2026-05-07 09:16 15.18221 -69.69824 31013 ft 465 kts 17°
2026-05-07 09:16 15.42803 -69.60924 31101 ft 475 kts 17°
2026-05-07 09:16 15.92850 -69.42626 30943 ft 472 kts 17°
2026-05-07 09:17 16.40126 -69.20425 31041 ft 466 kts 22°
2026-05-07 09:17 16.87846 -68.97073 31066 ft 481 kts 23°
2026-05-07 09:18 17.11884 -68.85246 30956 ft 473 kts 23°
2026-05-07 09:18 17.35270 -68.73708 30945 ft 464 kts 23°
2026-05-07 09:18 17.58737 -68.62101 31076 ft 468 kts 22°
2026-05-07 09:18 17.82321 -68.50405 31146 ft 478 kts 23°
2026-05-07 09:19 18.30234 -68.26520 30959 ft 471 kts 23°
2026-05-07 09:19 18.77223 -68.02961 31104 ft 472 kts 23°
2026-05-07 09:20 19.25740 -67.79642 31020 ft 480 kts 22°
2026-05-07 09:20 19.50025 -67.67985 30949 ft 469 kts 22°
2026-05-07 09:20 19.73408 -67.56733 31028 ft 467 kts 22°
2026-05-07 09:21 19.97256 -67.45216 31134 ft 475 kts 22°
2026-05-07 09:21 20.21677 -67.33383 31134 ft 483 kts 22°
2026-05-07 09:21 20.45787 -67.21657 31000 ft 475 kts 22°
2026-05-07 09:21 20.68530 -67.08247 30992 ft 468 kts 31°
2026-05-07 09:22 20.90702 -66.93179 31106 ft 470 kts 29°
2026-05-07 09:22 21.12982 -66.78330 31175 ft 481 kts 30°
2026-05-07 09:22 21.35605 -66.63139 31070 ft 480 kts 29°
2026-05-07 09:22 21.57840 -66.48163 30974 ft 469 kts 29°
2026-05-07 09:23 22.01580 -66.18545 31137 ft 466 kts 29°
2026-05-07 09:23 22.49979 -65.97209 31082 ft 472 kts 20°
2026-05-07 09:24 22.73945 -65.86847 30995 ft 461 kts 20°
2026-05-07 09:24 22.97331 -65.76700 31020 ft 454 kts 20°
2026-05-07 09:24 23.20927 -65.66423 31136 ft 459 kts 20°
2026-05-07 09:24 23.44795 -65.55983 31180 ft 470 kts 20°
2026-05-07 09:25 23.68895 -65.44913 31068 ft 468 kts 22°
2026-05-07 09:25 23.92481 -65.33823 30997 ft 457 kts 22°
2026-05-07 09:25 24.39139 -65.11827 31152 ft 459 kts 22°
2026-05-07 09:26 24.62689 -65.00657 31175 ft 470 kts 22°
2026-05-07 09:26 24.86489 -64.89316 31055 ft 467 kts 21°
2026-05-07 09:26 25.33483 -64.66792 31063 ft 455 kts 21°
2026-05-07 09:27 25.56552 -64.55285 31145 ft 467 kts 26°
2026-05-07 09:27 25.79236 -64.40354 31135 ft 473 kts 27°
2026-05-07 09:27 26.24044 -64.11692 31008 ft 458 kts 27°
2026-05-07 09:28 26.46153 -63.97429 31143 ft 461 kts 26°
2026-05-07 09:28 26.68424 -63.82992 31202 ft 472 kts 26°
2026-05-07 09:28 26.92100 -63.69927 31132 ft 462 kts 15°
2026-05-07 09:29 27.39949 -63.50535 31095 ft 456 kts 17°
2026-05-07 09:29 27.87664 -63.30660 32052 ft 465 kts 17°
2026-05-07 09:29 28.11855 -63.20492 33165 ft 466 kts 17°
2026-05-07 09:30 28.35814 -63.10367 33116 ft 461 kts 17°
2026-05-07 09:30 28.59498 -63.00320 32986 ft 442 kts 17°
2026-05-07 09:30 28.82149 -62.90675 33069 ft 435 kts 17°
2026-05-07 09:30 29.05039 -62.80881 33213 ft 446 kts 17°
2026-05-07 09:31 29.28394 -62.70827 33182 ft 454 kts 17°
2026-05-07 09:31 29.51974 -62.60629 33052 ft 447 kts 17°
2026-05-07 09:31 29.75076 -62.50597 33024 ft 437 kts 16°
2026-05-07 09:31 29.97549 -62.40795 33157 ft 440 kts 16°
2026-05-07 09:32 30.20833 -62.30579 33201 ft 450 kts 16°
2026-05-07 09:32 30.67264 -62.10049 33021 ft 438 kts 16°
2026-05-07 09:33 31.12393 -61.89906 33165 ft 439 kts 16°
2026-05-07 09:33 31.58064 -61.69290 33047 ft 437 kts 17°
2026-05-07 09:34 32.02772 -61.48915 33144 ft 432 kts 17°
2026-05-07 09:34 32.48160 -61.27994 33071 ft 439 kts 17°
2026-05-07 09:34 32.70485 -61.17591 32990 ft 428 kts 17°
2026-05-07 09:35 32.92355 -61.06608 33069 ft 426 kts 18°
2026-05-07 09:35 33.36879 -60.84228 33120 ft 440 kts 18°
2026-05-07 09:35 33.59327 -60.72838 32996 ft 430 kts 18°
2026-05-07 09:36 33.80928 -60.61827 32979 ft 420 kts 17°
2026-05-07 09:36 34.02459 -60.50797 33110 ft 427 kts 17°
2026-05-07 09:36 34.24735 -60.39314 33135 ft 437 kts 18°
2026-05-07 09:36 34.46823 -60.27854 33020 ft 435 kts 18°
2026-05-07 09:37 34.68891 -60.16340 32940 ft 424 kts 18°
2026-05-07 09:37 35.11273 -59.89813 33136 ft 452 kts 32°
2026-05-07 09:37 35.30778 -59.70960 32966 ft 441 kts 31°
2026-05-07 09:38 35.50084 -59.52699 32948 ft 434 kts 31°
2026-05-07 09:38 35.69015 -59.34617 33065 ft 441 kts 31°
2026-05-07 09:38 35.88716 -59.15682 33101 ft 453 kts 32°
2026-05-07 09:38 36.08651 -58.96383 32986 ft 452 kts 32°
2026-05-07 09:39 36.28209 -58.77330 32904 ft 442 kts 33°
2026-05-07 09:39 36.66934 -58.39258 33078 ft 456 kts 34°
2026-05-07 09:39 36.87155 -58.19179 33044 ft 470 kts 35°
2026-05-07 09:40 37.07586 -57.98737 32951 ft 474 kts 36°
2026-05-07 09:40 37.48287 -57.57583 32952 ft 467 kts 39°
2026-05-07 09:40 37.68612 -57.36803 33004 ft 478 kts 41°
2026-05-07 09:41 37.89470 -57.15280 33040 ft 494 kts 41°
2026-05-07 09:41 38.10972 -56.92962 33018 ft 505 kts 41°
2026-05-07 09:41 38.32541 -56.70402 32901 ft 504 kts 41°
2026-05-07 09:42 38.75497 -56.24921 32943 ft 504 kts 41°
2026-05-07 09:42 38.97067 -56.01813 33038 ft 519 kts 41°
2026-05-07 09:42 39.19571 -55.77493 33050 ft 529 kts 40°
2026-05-07 09:42 39.41955 -55.53094 32940 ft 523 kts 40°
2026-05-07 09:43 39.63880 -55.28989 32904 ft 512 kts 40°
2026-05-07 09:43 39.85530 -55.04992 33056 ft 514 kts 40°
2026-05-07 09:43 40.07549 -54.80353 33178 ft 526 kts 40°
2026-05-07 09:44 40.51872 -54.30107 33009 ft 525 kts 39°
2026-05-07 09:44 40.95444 -53.79817 33202 ft 526 kts 39°
2026-05-07 09:44 41.17735 -53.53739 33276 ft 538 kts 39°
2026-05-07 09:45 41.39964 -53.27471 33182 ft 535 kts 39°
2026-05-07 09:45 41.62106 -53.01069 33117 ft 524 kts 39°
2026-05-07 09:45 41.83491 -52.75320 33177 ft 520 kts 39°
2026-05-07 09:45 42.05144 -52.49001 33329 ft 529 kts 40°
2026-05-07 09:46 42.27113 -52.22036 33366 ft 541 kts 40°
2026-05-07 09:46 42.49102 -51.94774 33253 ft 537 kts 40°
2026-05-07 09:46 42.70767 -51.67644 33187 ft 524 kts 40°
2026-05-07 09:47 43.13233 -51.13704 33401 ft 524 kts 40°
2026-05-07 09:47 43.56182 -50.58006 33324 ft 533 kts 41°
2026-05-07 09:48 43.98365 -50.02174 33382 ft 523 kts 41°
2026-05-07 09:48 44.14875 -49.68774 33528 ft 537 kts 57°
2026-05-07 09:48 44.31101 -49.33808 33461 ft 539 kts 54°
2026-05-07 09:48 44.47455 -48.98477 33355 ft 533 kts 55°
2026-05-07 09:49 44.63237 -48.63883 33294 ft 518 kts 55°
2026-05-07 09:49 44.93573 -47.96242 33513 ft 517 kts 55°
2026-05-07 09:50 45.23869 -47.27012 33351 ft 508 kts 56°
2026-05-07 09:50 45.38417 -46.93168 33303 ft 494 kts 56°
2026-05-07 09:50 45.52542 -46.59924 33448 ft 496 kts 56°
2026-05-07 09:50 45.66920 -46.25667 33525 ft 507 kts 57°
2026-05-07 09:51 45.81356 -45.90831 33422 ft 509 kts 57°
2026-05-07 09:51 45.95382 -45.56561 33316 ft 498 kts 57°
2026-05-07 09:51 46.09257 -45.22254 33331 ft 489 kts 58°
2026-05-07 09:51 46.22830 -44.88274 33438 ft 492 kts 58°
2026-05-07 09:52 46.36561 -44.53441 33462 ft 502 kts 59°
2026-05-07 09:52 46.50221 -44.18350 33348 ft 500 kts 59°
2026-05-07 09:52 46.63574 -43.83607 33258 ft 488 kts 60°
2026-05-07 09:53 46.89579 -43.14640 34170 ft 491 kts 60°
2026-05-07 09:53 47.02490 -42.79715 35381 ft 498 kts 60°
2026-05-07 09:53 47.15646 -42.43678 35408 ft 504 kts 60°
2026-05-07 09:53 47.28615 -42.07652 35225 ft 490 kts 60°
2026-05-07 09:54 47.40991 -41.72805 35148 ft 471 kts 60°
2026-05-07 09:54 47.64954 -41.04019 35409 ft 476 kts 59°
2026-05-07 09:55 47.89037 -40.32985 35267 ft 480 kts 59°
2026-05-07 09:55 48.00673 -39.97978 35187 ft 466 kts 59°
2026-05-07 09:55 48.12944 -39.64224 35230 ft 456 kts 57°
2026-05-07 09:55 48.24893 -39.30721 35359 ft 462 kts 57°
2026-05-07 09:56 48.36973 -38.96415 35385 ft 471 kts 57°
2026-05-07 09:56 48.49128 -38.61421 35284 ft 468 kts 57°
2026-05-07 09:56 48.60935 -38.26973 35208 ft 456 kts 57°
2026-05-07 09:57 48.83758 -37.59093 35343 ft 456 kts 57°
2026-05-07 09:57 48.95127 -37.24585 35373 ft 467 kts 58°
2026-05-07 09:57 49.06762 -36.88744 35289 ft 468 kts 58°
2026-05-07 09:57 49.18107 -36.53305 35187 ft 458 kts 58°
2026-05-07 09:58 49.29094 -36.18523 35188 ft 450 kts 58°
2026-05-07 09:58 49.39945 -35.83706 35297 ft 455 kts 58°
2026-05-07 09:58 49.50856 -35.48165 35336 ft 465 kts 58°
2026-05-07 09:58 49.61656 -35.12442 35221 ft 464 kts 58°
2026-05-07 09:59 49.72361 -34.76527 35129 ft 454 kts 58°
2026-05-07 09:59 49.92907 -34.06139 35231 ft 452 kts 58°
2026-05-07 09:59 50.03264 -33.69835 35271 ft 463 kts 59°
2026-05-07 10:00 50.13564 -33.33138 35187 ft 465 kts 59°
2026-05-07 10:00 50.33524 -32.60406 35081 ft 448 kts 59°
2026-05-07 10:00 50.43203 -32.24341 35188 ft 454 kts 60°
2026-05-07 10:01 50.52929 -31.87487 35252 ft 466 kts 60°
2026-05-07 10:01 50.72541 -31.11246 35075 ft 464 kts 61°
2026-05-07 10:02 50.91195 -30.36314 35152 ft 458 kts 62°
2026-05-07 10:02 51.00355 -29.98556 35233 ft 470 kts 62°
2026-05-07 10:02 51.10174 -29.59457 35167 ft 475 kts 61°
2026-05-07 10:03 51.28951 -28.82486 35017 ft 460 kts 61°
2026-05-07 10:03 51.47260 -28.04852 35198 ft 474 kts 62°
2026-05-07 10:03 51.56420 -27.64876 35176 ft 485 kts 63°
2026-05-07 10:04 51.65569 -27.24147 35062 ft 483 kts 63°
2026-05-07 10:04 51.83165 -26.43629 35055 ft 476 kts 64°
2026-05-07 10:04 51.91820 -26.02826 35162 ft 487 kts 65°
2026-05-07 10:05 52.00657 -25.60259 35166 ft 500 kts 66°
2026-05-07 10:05 52.09367 -25.17376 35056 ft 500 kts 68°
2026-05-07 10:05 52.17799 -24.74954 34986 ft 493 kts 68°
2026-05-07 10:06 52.34158 -23.89923 35126 ft 498 kts 70°
2026-05-07 10:06 52.42291 -23.46184 35154 ft 511 kts 71°
2026-05-07 10:06 52.50453 -23.01173 35052 ft 513 kts 72°
2026-05-07 10:07 52.65961 -22.12460 34958 ft 499 kts 73°
2026-05-07 10:07 52.73344 -21.68605 35064 ft 503 kts 73°
2026-05-07 10:07 52.80755 -21.23439 35137 ft 513 kts 74°
2026-05-07 10:08 52.95261 -20.31293 34978 ft 511 kts 75°
2026-05-07 10:08 53.00870 -19.85782 34869 ft 501 kts 88°
2026-05-07 10:08 53.00995 -19.40347 35030 ft 501 kts 89°
2026-05-07 10:09 53.02236 -18.45817 35055 ft 517 kts 90°
2026-05-07 10:09 53.02529 -17.98673 34919 ft 511 kts 91°
2026-05-07 10:09 53.02627 -17.52024 34871 ft 501 kts 91°
2026-05-07 10:10 53.02283 -16.59264 35030 ft 508 kts 92°